Location: Dal�� Lhota
(48.7500°N, 14.0167°E)
Time: 22:34:15
(UTC+00:00)

Daily predictions for brighter satellites

Satellite Brightness Start Highest point End
(mag) Time Altitude Azimuth Time Altitude Azimuth Time Altitude Azimuth
PSLV R/B 4.0 17:20:06 10° NNE 17:24:19 86° ESE 17:28:32 10° SSW
In-Cosmos 22 4.3 17:23:03 10° N 17:28:14 51° ENE 17:33:28 10° SSE
NOSS 3-2 (A) 4.1 17:21:37 10° NW 17:29:03 84° NE 17:37:30 10° SE
ARGOS 3.7 17:25:08 10° SE 17:30:01 37° ENE 17:34:55 10° N
NOSS 2-2 (C) 3.1 17:26:44 10° SW 17:30:14 90° WNW 17:34:14 10° NE
Cosmos 1048 Rocket 4.2 17:25:06 10° NNW 17:30:22 57° ENE 17:35:38 10° SE
CZ-2C R/B 4.1 17:28:00 10° NE 17:31:41 18° E 17:35:22 10° SE
Cosmos 2082 Rocket 4.1 17:32:08 10° N 17:35:15 15° NNE 17:38:23 10° ENE
Cosmos 2151 Rocket 4.1 17:35:22 10° SSE 17:39:29 37° E 17:43:39 10° NNE
Cosmos 1975 Rocket 3.7 17:35:29 10° NNW 17:39:46 60° W 17:44:01 10° S
Lacrosse 5 rocket 3.0 17:36:30 10° WNW 17:40:14 28° N 17:44:07 10° ENE
Cosmos 494 Rocket 4.3 17:38:15 10° NNW 17:43:22 48° ENE 17:48:26 10° SE
HJ-1C 3.5 17:41:29 10° SSE 17:44:40 51° ENE 17:47:54 10° N
COSMO-SKYMED 1 3.5 17:45:03 10° N 17:49:18 53° WNW 17:53:31 10° SSW
Nadezhda 4 Rocket 4.0 17:46:32 10° N 17:52:34 58° ENE 17:58:36 10° SSE
Cosmos 1805 4.4 17:49:41 10° SE 17:52:49 23° E 17:55:58 10° NE
Ariane Rocket 3.7 17:48:37 10° SE 17:53:10 34° ENE 17:57:45 10° N
H-2A R/B 2.0 17:49:02 10° SSE 17:54:00 70° ENE 17:59:09 10° N
SL-08 RB Rocket 4.2 17:50:55 10° SE 17:55:08 39° ENE 17:59:21 10° N
OBJECT-B 2.9 17:55:36 12° ENE 17:55:55 12° ENE 17:57:23 10° NE
SJ 16-02 4.2 17:53:36 10° W 17:56:25 16° NW 17:59:14 10° N
Exosat Rocket 4.0 17:53:35 10° S 17:58:29 37° ESE 18:03:05 10° NE
USA 116 3.6 17:55:56 10° NNE 17:59:35 79° ESE 18:03:42 10° S
Cosmos 2263 Rocket 3.8 17:54:33 10° WSW 17:59:42 37° NW 18:04:55 10° NNE
COSMOS 2406 4.0 17:56:50 10° NNW 18:02:01 34° NE 18:05:51 16° ESE
KORONAS-FOTON 4.2 17:58:27 10° N 18:02:15 45° ENE 18:06:01 10° SSE
Cosmos 1844 Rocket 2.6 17:58:23 10° SSW 18:03:53 67° ESE 18:09:27 10° NNE
Cosmos 1707 3.6 18:01:08 10° NNW 18:04:53 52° W 18:08:37 10° S
Cosmos 372 Rocket 4.4 18:00:32 10° SSW 18:05:45 69° WNW 18:10:59 10° NNE
Cosmos 1626 3.4 18:03:25 10° NNE 18:06:25 23° ENE 18:07:28 20° E
NOSS 3-2 (C) 4.1 17:59:50 10° NW 18:07:18 89° NE 18:15:47 10° SE
Cosmos 2278 Rocket 3.8 18:10:00 15° E 18:10:00 15° E 18:11:50 10° ENE
Cosmos 1844 3.7 18:05:45 10° SSW 18:11:20 62° ESE 18:16:55 10° NE
Cosmos 2034 Rocket 4.0 18:05:08 10° S 18:11:26 70° E 18:17:44 10° NNE
ISS -3.3 18:09:14 10° W 18:12:35 59° N 18:14:49 19° ENE
Meteor 2-5 Rocket 4.0 18:07:20 10° N 18:12:49 48° ENE 18:18:15 11° SE
NOSS 3-4 (A) 3.9 18:07:34 10° S 18:12:52 36° ESE 18:18:30 10° NE
NOSS 3-4 (C) 3.9 18:07:41 10° S 18:12:59 36° ESE 18:18:36 10° NE
USA 186 2.2 18:11:03 19° SE 18:13:03 43° ENE 18:16:12 10° N
NOSS 5 (C) 4.4 18:10:37 10° NW 18:13:42 63° NE 18:15:45 23° ESE
Meteor 1-12 Rocket 4.5 18:09:02 10° SSW 18:14:54 79° WNW 18:20:43 10° N
Lacrosse 4 Rocket 3.1 18:12:20 10° N 18:15:10 18° NE 18:16:33 15° ENE
Meteor 1-24 Rocket 4.2 18:10:10 10° N 18:15:24 39° ENE 18:19:24 17° SE
Meteor 2-13 Rocket 4.5 18:11:03 10° N 18:17:09 59° ENE 18:23:11 10° SSE
Cosmos 1300 Rocket 4.0 18:15:47 10° SSW 18:20:10 65° WNW 18:24:37 10° N
Okean 1 Rocket 3.3 18:19:01 10° SSE 18:23:20 49° E 18:27:41 10° NNE
SL-14 R/B 4.0 18:21:56 10° N 18:25:32 33° ENE 18:26:27 29° ESE
CENTAUR R/B 3.3 18:18:20 10° NW 18:26:22 80° SW 18:34:46 12° SSE
Resurs 01 Rocket 2.9 18:25:51 21° ENE 18:26:32 22° ENE 18:29:59 10° NNE
Cosmos 2298 Rocket 4.4 18:21:44 10° SSW 18:27:03 68° WNW 18:32:24 10° NNE
Cosmos 1833 Rocket 3.3 18:22:16 10° NNW 18:27:34 39° NE 18:30:12 25° ESE
Cosmos 1025 Rocket 4.4 18:30:06 10° NNW 18:34:15 41° W 18:38:22 10° SSW
Cosmos 1766 3.3 18:30:31 10° S 18:34:20 53° E 18:38:13 10° NNE
Okean 2 Rocket 4.2 18:30:28 10° SSW 18:34:47 46° WNW 18:39:07 10° N
ATLAS 2AS CENTAUR R/B 3.1 18:27:48 10° SSW 18:35:24 52° ESE 18:42:59 10° NE
ATLAS 3B R/B 2.9 18:32:01 10° NW 18:38:45 57° NE 18:42:34 27° ESE
Cosmos 1634 Rocket 4.1 18:33:15 10° SSE 18:39:11 52° E 18:45:11 10° NNE
SPOT 3 Rocket 3.9 18:40:10 31° ESE 18:42:01 43° ENE 18:46:53 10° N
Abrixas rocket 3.0 18:39:28 10° W 18:42:05 32° SSW 18:42:11 32° SSW
ARIANE 5 R/B 4.2 18:42:31 19° NE 18:42:31 19° NE 18:45:12 10° NNE
CREW DRAGON DEMO-1 DEB 3.8 18:41:03 10° W 18:43:53 36° SSW 18:44:16 34° SSW
Cosmos 1125 Rocket 3.8 18:42:22 10° SSW 18:47:40 72° WNW 18:53:01 10° NNE
Resurs 1-3 3.8 18:48:54 42° ESE 18:49:49 50° ENE 18:54:05 10° N
SJ-6B 2.6 18:48:31 35° SSE 18:50:03 89° WNW 18:53:52 10° NNW
Cosmos 1892 Rocket 3.7 18:46:45 10° N 18:50:57 47° ENE 18:51:24 45° E
Cosmos 2195 Rocket 4.4 18:48:09 10° N 18:54:26 90° E 19:00:07 13° S
Cosmos 1627 Rocket 4.5 18:49:36 10° N 18:56:04 84° E 19:01:24 16° S
Cosmos 1674 3.9 18:52:48 10° NNW 18:56:27 41° W 19:00:03 10° SSW
Cosmos 2026 Rocket 4.0 18:50:54 10° N 18:57:19 82° E 19:02:16 18° SSE
Cosmos 1092 Rocket 4.1 18:51:18 10° NNW 18:57:29 78° W 19:03:41 10° S
Cosmos 2285 Rocket 4.1 18:52:04 10° SSW 18:58:24 79° WNW 19:04:48 10° NNE
MOS 1 Rocket 4.4 18:58:09 10° N 19:02:17 41° WNW 19:06:17 10° SW
FREGAT/IRIS 3.9 19:04:41 33° NW 19:04:41 33° NW 19:06:28 10° NNW
Cosmos 1428 Rocket 4.4 18:59:34 10° N 19:05:53 89° E 19:10:06 22° S
TSX-5 4.0 19:05:40 10° SSW 19:09:36 85° NW 19:14:43 10° NNE
CZ-2C R/B 2.8 19:07:00 10° NNE 19:12:36 80° WNW 19:18:13 10° SSW
Cosmos 1340 Rocket 2.7 19:15:11 76° NNE 19:15:11 76° NNE 19:18:55 10° NNE
Cosmos 2279 Rocket 3.9 19:12:59 34° SSE 19:15:42 62° E 19:21:53 10° NNE
Cosmos 1733 3.8 19:13:48 17° SSW 19:16:36 56° WNW 19:20:23 10° N
MetOp-B 4.4 19:17:29 48° ENE 19:17:44 48° ENE 19:22:51 10° N
Lacrosse 5 rocket 2.4 19:16:09 10° NW 19:20:19 38° NNE 19:20:43 37° NNE
Cosmos 2098 Rocket 4.0 19:14:01 10° N 19:20:39 53° ENE 19:21:19 51° E
Cosmos 2082 Rocket 2.3 19:15:09 10° NNW 19:20:41 54° NE 19:21:17 52° E
DMSP B5D2-2 4.2 19:17:08 10° NNE 19:22:27 76° WNW 19:27:42 10° SSW
Spot 2 Rocket 4.2 19:25:14 37° NE 19:25:14 37° NE 19:29:15 10° N
BREEZE-M R/B 3.5 19:17:30 10° WSW 19:24:25 72° WSW 19:24:25 72° WSW
OBJECT-B 2.3 19:28:48 36° NW 19:28:48 36° NW 19:31:04 10° NNW
Cosmos 2142 Rocket 4.4 19:24:37 18° S 19:29:26 87° E 19:35:41 10° N
Ariane Rocket 4.3 19:28:06 14° SSW 19:32:05 37° W 19:36:49 10° NNW
Terra 3.8 19:42:50 17° NNE 19:42:50 17° NNE 19:44:38 10° NNE
Cosmos 1626 3.9 19:38:27 10° NNW 19:41:41 29° W 19:42:02 28° WSW
Okean 1-7 Rocket 3.9 19:37:37 10° NNW 19:41:51 69° WNW 19:41:51 69° WNW
Cosmos 1455 Rocket 4.1 19:47:18 38° N 19:47:18 38° N 19:50:04 10° N
COSMOS 2406 3.9 19:41:03 10° NW 19:46:30 48° WSW 19:47:55 40° SSW
SPOT 1/Viking Rocket 4.1 19:48:44 45° NNE 19:48:44 45° NNE 19:52:42 10° N
ISS -1.2 19:46:21 10° WNW 19:47:46 22° WNW 19:47:46 22° WNW
Cosmos 2278 Rocket 2.1 19:46:05 10° SSW 19:51:45 87° WNW 19:57:27 10° NNE
Lacrosse 4 Rocket 2.7 19:50:15 10° NW 19:52:52 38° NW 19:52:52 38° NW
Cosmos 909 Rocket 3.9 19:53:06 10° NW 19:59:40 89° SW 19:59:55 83° SSE
Cosmos 2266 Rocket 3.8 19:54:49 10° N 20:00:34 77° NE 20:00:34 77° NE
Resurs 01 Rocket 2.7 20:03:26 44° WNW 20:03:26 44° WNW 20:07:04 10° NNW
NOSS 3-4 (A) 4.0 19:57:38 10° WSW 20:03:30 55° NW 20:09:51 10° NE
NOSS 3-4 (C) 4.0 19:57:44 10° WSW 20:03:36 56° NW 20:09:58 10° NE
Cosmos 1833 Rocket 3.5 20:06:15 10° NW 20:11:32 41° WSW 20:11:54 41° WSW
Cosmos 2251 Rocket 4.1 20:09:09 10° NNW 20:13:44 55° WNW 20:13:44 55° WNW
ERS-1 Rocket 4.2 20:17:40 35° N 20:17:40 35° N 20:20:38 10° N
ARIANE 5 R/B 4.3 20:20:05 31° NW 20:20:05 31° NW 20:22:31 10° NNW
ATLAS 2AS CENTAUR R/B 3.6 20:18:43 10° WSW 20:26:31 55° NW 20:34:11 10° NE
ATLAS 3B R/B 3.5 20:22:57 10° NW 20:29:19 42° WSW 20:29:50 41° SW
SPOT 5 4.3 20:33:48 38° N 20:33:48 38° N 20:37:04 10° N
Lacrosse 5 rocket 4.2 20:55:18 10° WNW 20:56:20 17° WNW 20:56:20 17° WNW
Cosmos 2082 Rocket 4.0 20:59:45 10° NW 21:03:08 25° W 21:03:08 25° W
Terra 4.3 21:21:45 19° NNW 21:21:45 19° NNW 21:23:10 10° NNW
Cosmos 2278 Rocket 4.4 21:33:00 12° W 21:36:40 21° NW 21:40:55 10° N
CZ-4C R/B 4.3 22:45:17 25° N 22:45:17 25° N 22:49:22 10° NE
SL-16 R/B 4.0 23:50:37 31° NNE 23:50:37 31° NNE 23:54:11 10° N
